| time (UTC) | temp F | wind direction | speed knots | gust knots | rain 1hr in | rain 24hr in | rain mn in | humidity % | barometer mb |
| 20260508010740 | 44 | 74 | 2.6 | 2.6 | 0.00 | 0.00 | 0.00 | 77 | 1008.3 |
| 20260508010238 | 44 | 69 | 1.7 | 1.7 | 0.00 | 0.00 | 0.00 | 76 | 1008.4 |
| 20260508005735 | 45 | 51 | 1.7 | 1.7 | 0.00 | 0.00 | 0.00 | 75 | 1008.0 |
| 20260508005232 | 45 | 61 | 1.7 | 1.7 | 0.00 | 0.00 | 0.00 | 75 | 1008.0 |
| 20260508004727 | 45 | 47 | 1.7 | 1.7 | 0.00 | 0.00 | 0.00 | 72 | 1008.1 |
| 20260508004224 | 46 | 33 | 1.7 | 1.7 | 0.00 | 0.00 | 0.00 | 70 | 1008.1 |
| 20260508003720 | 46 | 85 | 1.7 | 1.7 | 0.00 | 0.00 | 0.00 | 70 | 1007.9 |
| 20260508003218 | 46 | 46 | 0.9 | 1.7 | 0.00 | 0.00 | 0.00 | 73 | 1007.8 |
| 20260508002714 | 46 | 52 | 1.7 | 1.7 | 0.00 | 0.00 | 0.00 | 68 | 1008.0 |
| 20260508002212 | 47 | 42 | 0.9 | 1.7 | 0.00 | 0.00 | 0.00 | 69 | 1007.8 |
| 20260508001707 | 47 | 304 | 0.0 | 1.7 | 0.00 | 0.00 | 0.00 | 70 | 1007.8 |
| 20260508001203 | 47 | 40 | 0.9 | 1.7 | 0.00 | 0.00 | 0.00 | 71 | 1007.6 |
| 20260508000659 | 47 | 351 | 0.9 | 1.7 | 0.00 | 0.00 | 0.00 | 66 | 1007.7 |
| 20260508000157 | 48 | 349 | 0.0 | 1.7 | 0.00 | 0.00 | 0.00 | 66 | 1007.4 |
| 20260507235653 | 48 | 46 | 0.9 | 1.7 | 0.00 | 0.00 | 0.00 | 62 | 1007.5 |
| 20260507235151 | 49 | 33 | 2.6 | 2.6 | 0.00 | 0.00 | 0.00 | 61 | 1007.7 |
| 20260507234648 | 49 | 36 | 1.7 | 1.7 | 0.00 | 0.00 | 0.00 | 60 | 1007.6 |
| 20260507234144 | 49 | 28 | 0.0 | 1.7 | 0.00 | 0.00 | 0.00 | 61 | 1007.2 |
| 20260507233641 | 49 | 50 | 1.7 | 2.6 | 0.00 | 0.00 | 0.00 | 60 | 1007.4 |
| 20260507233139 | 50 | 45 | 1.7 | 1.7 | 0.00 | 0.00 | 0.00 | 61 | 1007.7 |
| 20260507232635 | 51 | 25 | 1.7 | 1.7 | 0.00 | 0.00 | 0.00 | 56 | 1007.4 |
| 20260507232133 | 51 | 26 | 1.7 | 3.5 | 0.00 | 0.00 | 0.00 | 52 | 1007.5 |
| 20260507231629 | 51 | 25 | 2.6 | 2.6 | 0.00 | 0.00 | 0.00 | 53 | 1007.2 |
| 20260507231126 | 51 | 25 | 2.6 | 3.5 | 0.00 | 0.00 | 0.00 | 51 | 1007.4 |
| 20260507230622 | 52 | 18 | 2.6 | 3.5 | 0.00 | 0.00 | 0.00 | 52 | 1007.2 |
| 20260507230120 | 53 | 338 | 1.7 | 3.5 | 0.00 | 0.00 | 0.00 | 50 | 1007.5 |
| 20260507225614 | 53 | 24 | 3.5 | 5.2 | 0.00 | 0.00 | 0.00 | 50 | 1007.1 |
| 20260507225111 | 53 | 82 | 1.7 | 4.3 | 0.00 | 0.00 | 0.00 | 50 | 1007.1 |
| 20260507224607 | 53 | 25 | 2.6 | 4.3 | 0.00 | 0.00 | 0.00 | 49 | 1007.4 |
| 20260507224104 | 53 | 37 | 4.3 | 4.3 | 0.00 | 0.00 | 0.00 | 49 | 1007.1 |
| 20260507223600 | 54 | 47 | 5.2 | 5.2 | 0.00 | 0.00 | 0.00 | 50 | 1007.4 |
| 20260507223057 | 55 | 67 | 2.6 | 3.5 | 0.00 | 0.00 | 0.00 | 51 | 1007.5 |
| 20260507222554 | 55 | 350 | 0.9 | 3.5 | 0.00 | 0.00 | 0.00 | 49 | 1007.0 |
| 20260507222050 | 54 | 40 | 3.5 | 4.3 | 0.00 | 0.00 | 0.00 | 55 | 1007.1 |
| 20260507221547 | 54 | 50 | 1.7 | 3.5 | 0.00 | 0.00 | 0.00 | 52 | 1007.4 |
| 20260507221044 | 55 | 78 | 1.7 | 4.3 | 0.00 | 0.00 | 0.00 | 53 | 1007.1 |
| 20260507220541 | 55 | 77 | 4.3 | 5.2 | 0.00 | 0.00 | 0.00 | 52 | 1007.1 |
| 20260507220038 | 56 | 52 | 3.5 | 5.2 | 0.00 | 0.00 | 0.00 | 49 | 1007.2 |
| 20260507215534 | 56 | 77 | 3.5 | 4.3 | 0.00 | 0.00 | 0.00 | 52 | 1007.1 |
| 20260507215032 | 57 | 56 | 3.5 | 5.2 | 0.00 | 0.00 | 0.00 | 48 | 1007.2 |
| 20260507214530 | 57 | 49 | 3.5 | 4.3 | 0.00 | 0.00 | 0.00 | 50 | 1007.4 |
| 20260507214025 | 57 | 59 | 4.3 | 5.2 | 0.00 | 0.00 | 0.00 | 49 | 1007.5 |
| 20260507213521 | 58 | 25 | 3.5 | 3.5 | 0.00 | 0.00 | 0.00 | 49 | 1007.4 |
| 20260507213019 | 59 | 88 | 2.6 | 3.5 | 0.00 | 0.00 | 0.00 | 48 | 1007.2 |
| 20260507212514 | 56 | 8 | 3.5 | 5.2 | 0.00 | 0.00 | 0.00 | 45 | 1007.5 |
| 20260507212011 | 57 | 7 | 3.5 | 6.1 | 0.00 | 0.00 | 0.00 | 44 | 1007.2 |
| 20260507211508 | 57 | 20 | 4.3 | 4.3 | 0.00 | 0.00 | 0.00 | 47 | 1007.5 |
| 20260507211004 | 56 | 37 | 3.5 | 6.1 | 0.00 | 0.00 | 0.00 | 46 | 1007.4 |
| 20260507210501 | 55 | 3 | 6.1 | 7.0 | 0.00 | 0.00 | 0.00 | 48 | 1007.6 |
| 20260507205958 | 55 | 29 | 3.5 | 4.3 | 0.00 | 0.00 | 0.00 | 49 | 1007.4 |
| 20260507205455 | 58 | 29 | 1.7 | 4.3 | 0.00 | 0.00 | 0.00 | 43 | 1007.0 |
| 20260507204951 | 57 | 47 | 3.5 | 5.2 | 0.00 | 0.00 | 0.00 | 47 | 1007.4 |
| 20260507204448 | 55 | 13 | 4.3 | 4.3 | 0.00 | 0.00 | 0.00 | 48 | 1007.2 |
| 20260507203945 | 55 | 19 | 3.5 | 4.3 | 0.00 | 0.00 | 0.00 | 46 | 1007.6 |
| 20260507203443 | 56 | 16 | 3.5 | 4.3 | 0.00 | 0.00 | 0.00 | 47 | 1007.5 |
| 20260507202939 | 56 | 5 | 2.6 | 3.5 | 0.00 | 0.00 | 0.00 | 47 | 1007.6 |
| 20260507202436 | 55 | 67 | 4.3 | 5.2 | 0.00 | 0.00 | 0.00 | 48 | 1007.5 |
| 20260507201932 | 55 | 76 | 0.0 | 3.5 | 0.00 | 0.00 | 0.00 | 49 | 1007.4 |
| 20260507201432 | 55 | 69 | 3.5 | 4.3 | 0.00 | 0.00 | 0.00 | 49 | 1007.4 |
| 20260507200929 | 55 | 16 | 4.3 | 5.2 | 0.00 | 0.00 | 0.00 | 48 | 1007.5 |
| 20260507200425 | 55 | 3 | 5.2 | 5.2 | 0.00 | 0.00 | 0.00 | 48 | 1007.7 |
| 20260507195921 | 55 | 26 | 1.7 | 3.5 | 0.00 | 0.00 | 0.00 | 50 | 1007.4 |
| 20260507195419 | 56 | 4 | 4.3 | 5.2 | 0.00 | 0.00 | 0.00 | 46 | 1007.7 |
| 20260507194916 | 55 | 87 | 3.5 | 6.1 | 0.00 | 0.00 | 0.00 | 53 | 1007.6 |
| 20260507194412 | 56 | 63 | 2.6 | 7.8 | 0.00 | 0.00 | 0.00 | 46 | 1007.9 |
| 20260507193908 | 56 | 36 | 4.3 | 4.3 | 0.00 | 0.00 | 0.00 | 48 | 1007.9 |
| 20260507193406 | 55 | 26 | 5.2 | 5.2 | 0.00 | 0.00 | 0.00 | 48 | 1007.8 |
| 20260507192902 | 55 | 75 | 2.6 | 6.1 | 0.00 | 0.00 | 0.00 | 46 | 1007.7 |
| 20260507192358 | 57 | 74 | 7.0 | 7.8 | 0.00 | 0.00 | 0.00 | 42 | 1008.2 |
| 20260507191855 | 56 | 9 | 4.3 | 7.0 | 0.00 | 0.00 | 0.00 | 46 | 1007.8 |
| 20260507191351 | 55 | 62 | 3.5 | 7.0 | 0.00 | 0.00 | 0.00 | 46 | 1008.1 |
| 20260507190848 | 55 | 82 | 2.6 | 7.8 | 0.00 | 0.00 | 0.00 | 49 | 1007.9 |
| 20260507190346 | 57 | 102 | 4.3 | 7.0 | 0.00 | 0.00 | 0.00 | 44 | 1007.9 |
| 20260507185845 | 56 | 8 | 3.5 | 4.3 | 0.00 | 0.00 | 0.00 | 47 | 1008.0 |
| 20260507185342 | 56 | 11 | 3.5 | 4.3 | 0.00 | 0.00 | 0.00 | 47 | 1008.1 |
| 20260507184838 | 56 | 13 | 4.3 | 4.3 | 0.00 | 0.00 | 0.00 | 47 | 1008.2 |
| 20260507184336 | 54 | 70 | 3.5 | 5.2 | 0.00 | 0.00 | 0.00 | 49 | 1008.0 |
| 20260507183833 | 54 | 14 | 3.5 | 5.2 | 0.00 | 0.00 | 0.00 | 47 | 1008.1 |
| 20260507183330 | 55 | 25 | 2.6 | 5.2 | 0.00 | 0.00 | 0.00 | 45 | 1008.1 |
| 20260507182828 | 56 | 329 | 5.2 | 6.1 | 0.00 | 0.00 | 0.00 | 44 | 1008.1 |
| 20260507182323 | 55 | 5 | 2.6 | 5.2 | 0.00 | 0.00 | 0.00 | 49 | 1008.3 |
| 20260507181820 | 55 | 20 | 2.6 | 3.5 | 0.00 | 0.00 | 0.00 | 48 | 1008.5 |
| 20260507181316 | 55 | 35 | 2.6 | 5.2 | 0.00 | 0.00 | 0.00 | 45 | 1008.4 |
| 20260507180813 | 55 | 46 | 1.7 | 7.0 | 0.00 | 0.00 | 0.00 | 46 | 1008.3 |
| 20260507180310 | 54 | 140 | 3.5 | 6.1 | 0.00 | 0.00 | 0.00 | 48 | 1008.3 |
| 20260507175805 | 54 | 232 | 7.0 | 7.0 | 0.00 | 0.00 | 0.00 | 45 | 1008.4 |
| 20260507175306 | 54 | 37 | 2.6 | 3.5 | 0.00 | 0.00 | 0.00 | 51 | 1008.4 |
| 20260507174759 | 55 | 249 | 2.6 | 3.5 | 0.00 | 0.00 | 0.00 | 46 | 1008.5 |
| 20260507174257 | 54 | 17 | 1.7 | 4.3 | 0.00 | 0.00 | 0.00 | 49 | 1008.8 |
| 20260507173755 | 55 | 134 | 1.7 | 3.5 | 0.00 | 0.00 | 0.00 | 47 | 1008.6 |
| 20260507173252 | 55 | 12 | 3.5 | 4.3 | 0.00 | 0.00 | 0.00 | 52 | 1008.5 |
| 20260507172748 | 55 | 49 | 4.3 | 7.0 | 0.00 | 0.00 | 0.00 | 50 | 1009.0 |
| 20260507172245 | 53 | 277 | 5.2 | 6.1 | 0.00 | 0.00 | 0.00 | 48 | 1008.8 |
| 20260507171740 | 54 | 13 | 1.7 | 7.0 | 0.00 | 0.00 | 0.00 | 46 | 1009.1 |
| 20260507171238 | 55 | 13 | 3.5 | 4.3 | 0.00 | 0.00 | 0.00 | 46 | 1009.0 |
| 20260507170734 | 54 | 7 | 1.7 | 3.5 | 0.00 | 0.00 | 0.00 | 51 | 1009.1 |
| 20260507170231 | 55 | 91 | 2.6 | 4.3 | 0.00 | 0.00 | 0.00 | 54 | 1008.9 |
| 20260507165727 | 55 | 5 | 2.6 | 4.3 | 0.00 | 0.00 | 0.00 | 53 | 1009.0 |
| 20260507165223 | 52 | 18 | 2.6 | 4.3 | 0.00 | 0.00 | 0.00 | 53 | 1009.0 |
| 20260507164719 | 53 | 86 | 3.5 | 4.3 | 0.00 | 0.00 | 0.00 | 55 | 1008.9 |
| 20260507164217 | 52 | 19 | 1.7 | 4.3 | 0.00 | 0.00 | 0.00 | 51 | 1009.1 |
| 20260507163714 | 53 | 308 | 1.7 | 3.5 | 0.00 | 0.00 | 0.00 | 50 | 1009.0 |
| 20260507163212 | 54 | 344 | 2.6 | 7.8 | 0.00 | 0.00 | 0.00 | 49 | 1009.1 |
| 20260507162707 | 57 | 66 | 4.3 | 4.3 | 0.00 | 0.00 | 0.00 | 49 | 1009.0 |
| 20260507162203 | 54 | 70 | 3.5 | 4.3 | 0.00 | 0.00 | 0.00 | 52 | 1009.2 |
| 20260507161700 | 53 | 0 | 1.7 | 5.2 | 0.00 | 0.00 | 0.00 | 49 | 1009.4 |
| 20260507161156 | 52 | 0 | 1.7 | 3.5 | 0.00 | 0.00 | 0.00 | 50 | 1009.5 |
| 20260507160653 | 53 | 24 | 2.6 | 3.5 | 0.00 | 0.00 | 0.00 | 51 | 1009.1 |
| 20260507160150 | 52 | 293 | 1.7 | 7.8 | 0.00 | 0.00 | 0.00 | 51 | 1009.2 |
| 20260507155645 | 52 | 316 | 6.1 | 7.8 | 0.00 | 0.00 | 0.00 | 48 | 1009.3 |
| 20260507155142 | 53 | 30 | 5.2 | 5.2 | 0.00 | 0.00 | 0.00 | 47 | 1009.2 |
| 20260507154638 | 54 | 52 | 3.5 | 6.1 | 0.00 | 0.00 | 0.00 | 48 | 1009.3 |
| 20260507154136 | 54 | 243 | 2.6 | 7.0 | 0.00 | 0.00 | 0.00 | 49 | 1009.4 |
| 20260507153632 | 55 | 43 | 4.3 | 7.0 | 0.00 | 0.00 | 0.00 | 51 | 1009.8 |
| 20260507153129 | 54 | 21 | 2.6 | 5.2 | 0.00 | 0.00 | 0.00 | 52 | 1009.8 |
| 20260507152625 | 54 | 326 | 2.6 | 4.3 | 0.00 | 0.00 | 0.00 | 50 | 1009.6 |
| 20260507152121 | 53 | 102 | 0.0 | 3.5 | 0.00 | 0.00 | 0.00 | 54 | 1009.8 |
| 20260507151617 | 53 | 166 | 1.7 | 3.5 | 0.00 | 0.00 | 0.00 | 51 | 1009.8 |
| 20260507151115 | 52 | 262 | 3.5 | 7.8 | 0.00 | 0.00 | 0.00 | 51 | 1009.9 |
| 20260507150612 | 53 | 108 | 1.7 | 6.1 | 0.00 | 0.00 | 0.00 | 55 | 1009.8 |
| 20260507150108 | 52 | 174 | 1.7 | 13.9 | 0.00 | 0.00 | 0.00 | 52 | 1010.0 |
| 20260507145603 | 51 | 37 | 4.3 | 7.8 | 0.00 | 0.00 | 0.00 | 55 | 1010.0 |
| 20260507145056 | 52 | 100 | 1.7 | 5.2 | 0.00 | 0.00 | 0.00 | 51 | 1010.0 |
| 20260507144552 | 54 | 324 | 3.5 | 3.5 | 0.00 | 0.00 | 0.00 | 59 | 1010.1 |
| 20260507144050 | 51 | 111 | 2.6 | 9.6 | 0.00 | 0.00 | 0.00 | 55 | 1010.2 |
| 20260507143547 | 51 | 53 | 3.5 | 3.5 | 0.00 | 0.00 | 0.00 | 58 | 1010.4 |
| 20260507143044 | 51 | 77 | 4.3 | 7.0 | 0.00 | 0.00 | 0.00 | 62 | 1010.2 |
| 20260507142544 | 50 | 32 | 2.6 | 4.3 | 0.00 | 0.00 | 0.00 | 55 | 1010.3 |
| 20260507142042 | 50 | 48 | 0.0 | 4.3 | 0.00 | 0.00 | 0.00 | 54 | 1010.3 |
| 20260507141538 | 50 | 0 | 0.9 | 5.2 | 0.00 | 0.00 | 0.00 | 52 | 1010.5 |
| 20260507141035 | 51 | 258 | 7.0 | 7.0 | 0.00 | 0.00 | 0.00 | 55 | 1010.4 |
| 20260507140532 | 51 | 120 | 3.5 | 6.1 | 0.00 | 0.00 | 0.00 | 58 | 1010.2 |
| 20260507140029 | 50 | 154 | 1.7 | 3.5 | 0.00 | 0.00 | 0.00 | 57 | 1010.3 |
| 20260507135526 | 49 | 284 | 4.3 | 8.7 | 0.00 | 0.00 | 0.00 | 60 | 1010.3 |
| 20260507135023 | 50 | 71 | 3.5 | 5.2 | 0.00 | 0.00 | 0.00 | 67 | 1010.3 |
| 20260507134519 | 49 | 296 | 2.6 | 3.5 | 0.00 | 0.00 | 0.00 | 63 | 1010.7 |
| 20260507134015 | 47 | 294 | 3.5 | 8.7 | 0.00 | 0.00 | 0.00 | 62 | 1010.7 |
| 20260507133511 | 48 | 290 | 3.5 | 7.8 | 0.00 | 0.00 | 0.00 | 65 | 1010.5 |
| 20260507133010 | 48 | 245 | 0.9 | 3.5 | 0.00 | 0.00 | 0.00 | 62 | 1010.5 |
| 20260507132506 | 49 | 65 | 6.1 | 7.0 | 0.00 | 0.00 | 0.00 | 64 | 1010.6 |
| 20260507132002 | 48 | 70 | 5.2 | 5.2 | 0.00 | 0.00 | 0.00 | 64 | 1010.6 |
| 20260507131459 | 48 | 47 | 1.7 | 3.5 | 0.00 | 0.00 | 0.00 | 65 | 1010.7 |
| 20260507130956 | 48 | 284 | 4.3 | 4.3 | 0.00 | 0.00 | 0.00 | 65 | 1010.6 |
| 20260507130453 | 48 | 70 | 4.3 | 5.2 | 0.00 | 0.00 | 0.00 | 69 | 1010.7 |
| 20260507125952 | 47 | 290 | 1.7 | 3.5 | 0.00 | 0.00 | 0.00 | 66 | 1010.8 |
| 20260507125450 | 47 | 353 | 1.7 | 4.3 | 0.00 | 0.00 | 0.00 | 64 | 1010.5 |
| 20260507124947 | 47 | 76 | 1.7 | 3.5 | 0.00 | 0.00 | 0.00 | 67 | 1010.7 |
| 20260507124443 | 48 | 45 | 4.3 | 5.2 | 0.00 | 0.00 | 0.00 | 71 | 1010.9 |
| 20260507123941 | 46 | 76 | 1.7 | 3.5 | 0.00 | 0.00 | 0.00 | 71 | 1011.2 |
| 20260507123438 | 47 | 104 | 5.2 | 7.8 | 0.00 | 0.00 | 0.00 | 69 | 1011.1 |
| 20260507122935 | 46 | 71 | 0.0 | 2.6 | 0.00 | 0.00 | 0.00 | 78 | 1011.1 |
| 20260507122430 | 46 | 31 | 3.5 | 4.3 | 0.00 | 0.00 | 0.00 | 77 | 1011.1 |
| 20260507121926 | 45 | 31 | 1.7 | 2.6 | 0.00 | 0.00 | 0.00 | 84 | 1010.9 |
| 20260507121422 | 44 | 110 | 2.6 | 4.3 | 0.00 | 0.00 | 0.00 | 83 | 1010.9 |
| 20260507120919 | 44 | 106 | 3.5 | 4.3 | 0.00 | 0.00 | 0.00 | 84 | 1010.9 |
| 20260507120415 | 43 | 69 | 2.6 | 5.2 | 0.00 | 0.00 | 0.00 | 86 | 1011.2 |
| 20260507115911 | 43 | 76 | 3.5 | 3.5 | 0.00 | 0.00 | 0.00 | 88 | 1011.2 |
| 20260507115408 | 42 | 38 | 1.7 | 3.5 | 0.00 | 0.00 | 0.00 | 91 | 1011.1 |
| 20260507114903 | 41 | 80 | 1.7 | 3.5 | 0.00 | 0.00 | 0.00 | 93 | 1011.1 |
| 20260507114400 | 40 | 43 | 3.5 | 3.5 | 0.00 | 0.00 | 0.00 | 94 | 1010.9 |
| 20260507113857 | 40 | 112 | 1.7 | 3.5 | 0.00 | 0.00 | 0.00 | 95 | 1010.7 |
| 20260507113355 | 39 | 96 | 2.6 | 3.5 | 0.00 | 0.00 | 0.00 | 94 | 1010.9 |
| 20260507112852 | 40 | 89 | 2.6 | 3.5 | 0.00 | 0.00 | 0.00 | 93 | 1010.7 |
| 20260507112349 | 40 | 80 | 2.6 | 2.6 | 0.00 | 0.00 | 0.00 | 93 | 1011.1 |
| 20260507111847 | 40 | 70 | 2.6 | 2.6 | 0.00 | 0.00 | 0.00 | 95 | 1010.8 |
| 20260507111343 | 40 | 30 | 1.7 | 2.6 | 0.00 | 0.00 | 0.00 | 95 | 1010.6 |
| 20260507110839 | 39 | 80 | 1.7 | 3.5 | 0.00 | 0.00 | 0.00 | 98 | 1010.7 |
| 20260507110335 | 38 | 73 | 1.7 | 2.6 | 0.00 | 0.00 | 0.00 | 98 | 1010.7 |
| 20260507105833 | 37 | 76 | 0.0 | 0.9 | 0.00 | 0.00 | 0.00 | 98 | 1010.8 |
| 20260507105329 | 37 | 70 | 0.9 | 1.7 | 0.00 | 0.00 | 0.00 | 99 | 1010.7 |
| 20260507104826 | 37 | 78 | 1.7 | 1.7 | 0.00 | 0.00 | 0.00 | 99 | 1010.8 |
| 20260507104323 | 36 | 88 | 1.7 | 2.6 | 0.00 | 0.00 | 0.00 | 99 | 1010.6 |
| 20260507103819 | 35 | 92 | 1.7 | 2.6 | 0.00 | 0.00 | 0.00 | 99 | 1010.8 |
| 20260507103315 | 34 | 59 | 0.9 | 1.7 | 0.00 | 0.00 | 0.00 | 99 | 1010.5 |
| 20260507102812 | 34 | 56 | 0.9 | 1.7 | 0.00 | 0.00 | 0.00 | 99 | 1010.6 |
| 20260507102309 | 34 | 73 | 1.7 | 1.7 | 0.00 | 0.00 | 0.00 | 99 | 1010.5 |
| 20260507101805 | 34 | 89 | 1.7 | 2.6 | 0.00 | 0.00 | 0.00 | 99 | 1010.3 |
| 20260507101304 | 35 | 58 | 1.7 | 1.7 | 0.00 | 0.00 | 0.00 | 99 | 1010.2 |
| 20260507100802 | 34 | 9 | 0.0 | 1.7 | 0.00 | 0.00 | 0.00 | 99 | 1010.3 |
| 20260507100300 | 35 | 78 | 1.7 | 1.7 | 0.00 | 0.00 | 0.00 | 99 | 1010.1 |
| 20260507095758 | 35 | 46 | 1.7 | 1.7 | 0.00 | 0.00 | 0.00 | 99 | 1010.1 |
| 20260507095254 | 35 | 32 | 0.9 | 1.7 | 0.00 | 0.00 | 0.00 | 99 | 1010.0 |
| 20260507094751 | 35 | 341 | 0.9 | 1.7 | 0.00 | 0.00 | 0.00 | 99 | 1010.1 |
| 20260507094248 | 35 | 32 | 2.6 | 2.6 | 0.00 | 0.00 | 0.00 | 99 | 1010.2 |
| 20260507093745 | 35 | 71 | 1.7 | 1.7 | 0.00 | 0.00 | 0.00 | 99 | 1010.2 |
| 20260507093243 | 36 | 49 | 0.9 | 1.7 | 0.00 | 0.00 | 0.00 | 99 | 1010.2 |
| 20260507092741 | 36 | 50 | 0.9 | 1.7 | 0.00 | 0.00 | 0.00 | 99 | 1010.4 |
| 20260507092236 | 36 | 5 | 0.9 | 1.7 | 0.00 | 0.00 | 0.00 | 98 | 1010.3 |
| 20260507091733 | 37 | 44 | 1.7 | 2.6 | 0.00 | 0.00 | 0.00 | 98 | 1010.0 |
| 20260507091230 | 37 | 30 | 0.0 | 1.7 | 0.00 | 0.00 | 0.00 | 97 | 1010.2 |
| 20260507090725 | 38 | 341 | 0.0 | 1.7 | 0.00 | 0.00 | 0.00 | 96 | 1010.1 |
| 20260507090222 | 38 | 27 | 1.7 | 3.5 | 0.00 | 0.00 | 0.00 | 96 | 1010.1 |
| 20260507085719 | 38 | 10 | 1.7 | 2.6 | 0.00 | 0.00 | 0.00 | 97 | 1010.1 |
| 20260507085216 | 38 | 30 | 1.7 | 1.7 | 0.00 | 0.00 | 0.00 | 97 | 1010.3 |
| 20260507084713 | 38 | 24 | 2.6 | 2.6 | 0.00 | 0.00 | 0.00 | 97 | 1010.2 |
| 20260507084209 | 38 | 38 | 1.7 | 1.7 | 0.00 | 0.00 | 0.00 | 97 | 1010.1 |
| 20260507083707 | 38 | 33 | 1.7 | 1.7 | 0.00 | 0.00 | 0.00 | 96 | 1009.9 |
| 20260507083203 | 38 | 41 | 1.7 | 2.6 | 0.00 | 0.00 | 0.00 | 96 | 1010.1 |
| 20260507082659 | 39 | 1 | 1.7 | 2.6 | 0.00 | 0.00 | 0.00 | 95 | 1009.9 |
| 20260507082155 | 40 | 40 | 1.7 | 2.6 | 0.00 | 0.00 | 0.00 | 95 | 1009.8 |
| 20260507081652 | 40 | 63 | 1.7 | 2.6 | 0.00 | 0.00 | 0.00 | 93 | 1010.0 |
| 20260507081148 | 40 | 61 | 0.9 | 2.6 | 0.00 | 0.00 | 0.00 | 93 | 1010.2 |
| 20260507080645 | 40 | 92 | 1.7 | 1.7 | 0.00 | 0.00 | 0.00 | 93 | 1009.9 |
| 20260507080142 | 40 | 22 | 1.7 | 2.6 | 0.00 | 0.00 | 0.00 | 92 | 1010.0 |
| 20260507075642 | 41 | 46 | 2.6 | 3.5 | 0.00 | 0.00 | 0.00 | 92 | 1009.9 |
| 20260507075139 | 41 | 38 | 2.6 | 2.6 | 0.00 | 0.00 | 0.00 | 90 | 1010.2 |
| 20260507074636 | 41 | 22 | 2.6 | 3.5 | 0.00 | 0.00 | 0.00 | 90 | 1010.1 |
| 20260507074134 | 41 | 29 | 2.6 | 2.6 | 0.00 | 0.00 | 0.00 | 92 | 1010.0 |
| 20260507073630 | 40 | 19 | 2.6 | 2.6 | 0.00 | 0.00 | 0.00 | 93 | 1010.0 |
| 20260507073126 | 41 | 21 | 1.7 | 1.7 | 0.00 | 0.00 | 0.00 | 94 | 1010.0 |
| 20260507072624 | 41 | 35 | 1.7 | 2.6 | 0.00 | 0.00 | 0.00 | 93 | 1009.8 |
| 20260507072121 | 41 | 43 | 1.7 | 2.6 | 0.00 | 0.00 | 0.00 | 93 | 1010.0 |
| 20260507071619 | 41 | 52 | 1.7 | 2.6 | 0.00 | 0.00 | 0.00 | 93 | 1010.1 |
| 20260507071115 | 42 | 41 | 1.7 | 2.6 | 0.00 | 0.00 | 0.00 | 92 | 1009.9 |
| 20260507070612 | 42 | 26 | 2.6 | 5.2 | 0.00 | 0.00 | 0.00 | 91 | 1010.0 |
| 20260507070109 | 42 | 39 | 1.7 | 2.6 | 0.00 | 0.00 | 0.00 | 94 | 1010.2 |
| 20260507065605 | 42 | 352 | 1.7 | 1.7 | 0.00 | 0.00 | 0.00 | 92 | 1009.9 |
| 20260507065103 | 42 | 35 | 2.6 | 3.5 | 0.00 | 0.00 | 0.00 | 93 | 1010.0 |
| 20260507064600 | 42 | 26 | 2.6 | 3.5 | 0.00 | 0.00 | 0.00 | 93 | 1009.8 |
| 20260507064059 | 42 | 26 | 2.6 | 3.5 | 0.00 | 0.00 | 0.00 | 94 | 1010.1 |
| 20260507063556 | 42 | 14 | 2.6 | 3.5 | 0.00 | 0.00 | 0.00 | 93 | 1010.0 |
| 20260507063053 | 42 | 38 | 3.5 | 4.3 | 0.00 | 0.00 | 0.00 | 93 | 1009.9 |
| 20260507062549 | 42 | 31 | 3.5 | 3.5 | 0.00 | 0.00 | 0.00 | 93 | 1009.8 |
| 20260507062047 | 43 | 26 | 2.6 | 3.5 | 0.00 | 0.00 | 0.00 | 93 | 1009.6 |
| 20260507061544 | 43 | 46 | 2.6 | 3.5 | 0.00 | 0.00 | 0.00 | 94 | 1009.5 |
| 20260507061042 | 43 | 56 | 3.5 | 3.5 | 0.00 | 0.00 | 0.00 | 94 | 1009.8 |
| 20260507060540 | 43 | 39 | 2.6 | 4.3 | 0.00 | 0.00 | 0.00 | 94 | 1009.6 |
| 20260507060037 | 43 | 50 | 2.6 | 3.5 | 0.00 | 0.00 | 0.00 | 95 | 1009.6 |
| 20260507055531 | 44 | 21 | 4.3 | 4.3 | 0.00 | 0.00 | 0.00 | 96 | 1009.8 |
| 20260507055028 | 44 | 26 | 2.6 | 2.6 | 0.00 | 0.00 | 0.00 | 97 | 1009.8 |
| 20260507054524 | 44 | 69 | 1.7 | 3.5 | 0.00 | 0.00 | 0.00 | 97 | 1009.4 |
| 20260507054021 | 44 | 56 | 2.6 | 4.3 | 0.00 | 0.00 | 0.00 | 98 | 1009.4 |
| 20260507053519 | 44 | 24 | 1.7 | 3.5 | 0.00 | 0.00 | 0.00 | 99 | 1009.4 |
| 20260507053018 | 44 | 66 | 3.5 | 5.2 | 0.00 | 0.00 | 0.00 | 99 | 1009.5 |
| 20260507052515 | 44 | 44 | 1.7 | 2.6 | 0.00 | 0.00 | 0.00 | 99 | 1009.4 |
| 20260507052012 | 44 | 62 | 1.7 | 2.6 | 0.00 | 0.00 | 0.00 | 99 | 1009.8 |
| 20260507051509 | 44 | 73 | 1.7 | 3.5 | 0.00 | 0.00 | 0.00 | 99 | 1009.7 |
| 20260507051006 | 44 | 56 | 1.7 | 1.7 | 0.00 | 0.00 | 0.00 | 99 | 1009.6 |
| 20260507050502 | 44 | 79 | 3.5 | 3.5 | 0.00 | 0.00 | 0.00 | 99 | 1009.6 |
| 20260507045959 | 44 | 77 | 2.6 | 3.5 | 0.00 | 0.00 | 0.00 | 99 | 1009.7 |
| 20260507045455 | 44 | 72 | 1.7 | 3.5 | 0.00 | 0.00 | 0.00 | 99 | 1009.5 |
| 20260507044953 | 44 | 46 | 2.6 | 2.6 | 0.00 | 0.00 | 0.00 | 99 | 1009.6 |
| 20260507044450 | 44 | 41 | 1.7 | 2.6 | 0.00 | 0.00 | 0.00 | 99 | 1009.6 |
| 20260507043946 | 44 | 59 | 1.7 | 1.7 | 0.00 | 0.00 | 0.00 | 99 | 1009.5 |
| 20260507043442 | 44 | 89 | 0.9 | 1.7 | 0.00 | 0.00 | 0.00 | 99 | 1009.5 |
| 20260507042938 | 44 | 55 | 0.9 | 1.7 | 0.00 | 0.00 | 0.00 | 99 | 1009.6 |
| 20260507042435 | 44 | 52 | 1.7 | 1.7 | 0.00 | 0.00 | 0.00 | 99 | 1009.6 |
| 20260507041931 | 44 | 42 | 0.9 | 1.7 | 0.00 | 0.00 | 0.00 | 99 | 1009.4 |
| 20260507041428 | 44 | 42 | 1.7 | 1.7 | 0.00 | 0.00 | 0.00 | 99 | 1009.3 |
| 20260507040925 | 44 | 82 | 1.7 | 1.7 | 0.00 | 0.00 | 0.00 | 99 | 1009.2 |
| 20260507040421 | 44 | 80 | 1.7 | 2.6 | 0.00 | 0.00 | 0.00 | 99 | 1009.2 |
| 20260507035917 | 44 | 88 | 0.9 | 1.7 | 0.00 | 0.30 | 0.30 | 99 | 1009.3 |
| 20260507035414 | 44 | 40 | 0.0 | 1.7 | 0.00 | 0.30 | 0.30 | 99 | 1009.3 |
| 20260507034911 | 44 | 47 | 1.7 | 1.7 | 0.00 | 0.30 | 0.30 | 99 | 1009.1 |
| 20260507034408 | 44 | 88 | 0.9 | 1.7 | 0.00 | 0.30 | 0.30 | 99 | 1009.1 |
| 20260507033905 | 44 | 91 | 1.7 | 1.7 | 0.00 | 0.30 | 0.30 | 99 | 1009.2 |
| 20260507033403 | 43 | 73 | 0.9 | 1.7 | 0.00 | 0.30 | 0.30 | 99 | 1009.1 |
| 20260507032900 | 43 | 55 | 1.7 | 2.6 | 0.00 | 0.30 | 0.30 | 99 | 1008.7 |
| 20260507032357 | 43 | 64 | 1.7 | 1.7 | 0.00 | 0.30 | 0.30 | 99 | 1009.1 |
| 20260507031853 | 43 | 40 | 0.9 | 1.7 | 0.00 | 0.30 | 0.30 | 99 | 1009.3 |
| 20260507031350 | 43 | 47 | 1.7 | 1.7 | 0.00 | 0.30 | 0.30 | 99 | 1009.1 |
| 20260507030846 | 43 | 48 | 1.7 | 1.7 | 0.00 | 0.30 | 0.30 | 99 | 1009.5 |
| 20260507030344 | 43 | 38 | 1.7 | 2.6 | 0.00 | 0.30 | 0.30 | 99 | 1009.4 |
| 20260507025840 | 43 | 73 | 2.6 | 2.6 | 0.00 | 0.30 | 0.30 | 99 | 1009.1 |
| 20260507025338 | 43 | 52 | 1.7 | 1.7 | 0.00 | 0.30 | 0.30 | 99 | 1009.4 |
| 20260507024836 | 43 | 12 | 0.0 | 1.7 | 0.00 | 0.30 | 0.30 | 99 | 1009.6 |
| 20260507024333 | 43 | 6 | 0.0 | 0.9 | 0.00 | 0.30 | 0.30 | 99 | 1009.7 |
| 20260507023828 | 43 | 74 | 0.9 | 1.7 | 0.00 | 0.30 | 0.30 | 99 | 1009.6 |
| 20260507023324 | 43 | 53 | 1.7 | 2.6 | 0.00 | 0.30 | 0.30 | 99 | 1009.5 |
| 20260507022822 | 44 | 40 | 1.7 | 2.6 | 0.00 | 0.30 | 0.30 | 99 | 1009.3 |
| 20260507022318 | 44 | 52 | 2.6 | 2.6 | 0.00 | 0.30 | 0.30 | 99 | 1009.6 |
| 20260507021815 | 44 | 60 | 0.0 | 0.9 | 0.00 | 0.30 | 0.30 | 99 | 1009.9 |
| 20260507021311 | 44 | 352 | 0.0 | 0.0 | 0.00 | 0.30 | 0.30 | 99 | 1009.8 |
| 20260507020809 | 44 | 74 | 2.6 | 2.6 | 0.00 | 0.30 | 0.30 | 99 | 1009.7 |
| 20260507020305 | 44 | 52 | 0.9 | 1.7 | 0.00 | 0.30 | 0.30 | 99 | 1009.8 |
| 20260507015802 | 44 | 67 | 1.7 | 1.7 | 0.00 | 0.30 | 0.30 | 99 | 1009.7 |
| 20260507015300 | 44 | 78 | 1.7 | 1.7 | 0.00 | 0.30 | 0.30 | 99 | 1009.7 |
| 20260507014756 | 44 | 66 | 1.7 | 1.7 | 0.00 | 0.30 | 0.30 | 99 | 1009.8 |
| 20260507014253 | 44 | 42 | 0.9 | 1.7 | 0.00 | 0.30 | 0.30 | 99 | 1009.7 |
| 20260507013749 | 44 | 42 | 0.0 | 1.7 | 0.00 | 0.30 | 0.30 | 99 | 1009.7 |
| 20260507013247 | 44 | 52 | 1.7 | 1.7 | 0.00 | 0.30 | 0.30 | 99 | 1009.7 |
| 20260507012744 | 44 | 45 | 1.7 | 2.6 | 0.00 | 0.30 | 0.30 | 99 | 1009.7 |
| 20260507012239 | 44 | 52 | 1.7 | 1.7 | 0.00 | 0.30 | 0.30 | 99 | 1009.8 |
| 20260507011737 | 44 | 57 | 1.7 | 1.7 | 0.00 | 0.30 | 0.30 | 99 | 1009.8 |
| 20260507011233 | 44 | 84 | 1.7 | 2.6 | 0.00 | 0.30 | 0.30 | 99 | 1009.8 |